Location: *
(51.2167°N, 10.0667°E)
Time: 20:15:41
(UTC+00:00)

Cosmos 2360 Rocket - Pass Details

Date: 12 December 2019
Orbit: 833 x 846 km, 71.0° (Epoch: 26 January)

Event Time Altitude Azimuth Distance (km) Brightness Sun altitude
Rises 16:39:32 0° 253° (WSW) 3,397 7.4 -12.8°
Reaches altitude 10° 16:42:25 10° 266° (W) 2,467 5.9 -13.2°
Maximum altitude 16:47:02 25° 321° (NW) 1,651 3.9 -13.9°
Drops below altitude 10° 16:51:41 10° 16° (NNE) 2,480 4.3 -14.5°
Enters shadow 16:52:35 - 21° (NNE) 2,757 4.5 -14.7°
